#timestamp,LO_Frequency,Hit,StdDev 
1536343215.3,286047000.2,N
1536343235.1,286047002.7,N
1536343255.9,286046999.8,N
1536343275.7,286047001.4,N
1536343295.5,286047001.3,N
1536343315.4,286047004.4,N
1536343335.2,286047003.6,N
1536343355.1,286047002.8,N
1536343356.0,286047002.8,N
1536343375.8,286047000.0,N
1536343395.6,286046999.7,N
1536343415.5,286047000.9,N
1536343435.3,286047000.8,N
1536343455.1,286046999.0,N
1536343475.9,286047001.0,N
1536343495.7,286047002.2,N
1536343515.6,286046999.7,N
1536343535.4,286047001.5,N
1536343555.2,286047001.8,N
1536343575.1,286047003.9,N
1536343576.0,286047003.9,N
1536343595.8,286047004.3,N
1536343615.6,286047003.6,N
1536343635.5,286047003.7,N
1536343655.3,286047004.4,N
1536343675.2,286047004.0,N
1536343695.9,286047001.3,N
1536343715.7,286047003.7,N
1536343735.6,286047004.2,N
1536343755.4,286047003.9,N
1536343775.2,286047005.6,Y
1536343795.1,286047004.1,P
1536343796.0,286047004.1,P
1536343815.8,286047004.3,P
1536343835.7,286047001.8,N
1536343855.5,286047002.7,N
1536343875.3,286047000.2,N
1536343895.2,286046999.9,N
1536343915.0,286047000.4,N
1536343915.9,286047000.4,N
1536343935.7,286046999.9,N
1536343955.6,286047000.3,N
1536343975.4,286047000.8,N
1536343995.3,286046998.6,N
1536344015.1,286046998.6,N
1536344016.0,286046998.6,N
1536344035.8,286046998.1,N
1536344055.7,286046998.7,N
1536344075.5,286046999.2,N
1536344095.3,286046996.8,N
1536344115.2,286046997.3,N
1536344135.0,286046999.4,N
1536344135.9,286046999.4,N
1536344155.8,286046999.0,N
1536344175.6,286047000.6,N
1536344195.4,286047000.8,N
1536344215.3,286046998.6,N
1536344235.1,286046998.4,N
1536344255.8,286047001.2,N
1536344275.7,286047000.9,N
1536344295.5,286046996.5,N
1536344315.4,286046997.0,N
1536344335.2,286046996.8,N
1536344355.0,286046996.6,N
1536344355.9,286046996.6,N
1536344375.8,286046999.1,N
1536344395.6,286046999.6,N
1536344415.4,286046996.5,N
1536344435.3,286046998.0,N
1536344455.1,286046995.0,Y
1536344475.9,286046998.8,P
1536344495.7,286046998.2,P
1536344515.5,286047000.8,N
1536344535.4,286046999.1,N
1536344555.2,286046997.0,Y
1536344575.0,286046999.1,P
1536344575.9,286046999.1,P
1536344595.8,286046996.7,P
1536344615.6,286046998.7,N
1536344635.5,286047000.8,N
1536344655.3,286046999.5,N
1536344675.1,286047000.0,N
1536344695.9,286047000.9,N
1536344715.7,286047000.1,N
1536344735.5,286047002.4,N
1536344755.4,286046999.7,N
1536344775.2,286046998.8,N
1536344795.1,286047002.7,N
1536344796.0,286047002.7,N
1536344815.8,286047002.5,N
1536344835.6,286046999.8,N
1536344855.5,286047004.4,N
1536344875.3,286047004.4,N
1536344895.1,286047001.6,N
1536344915.9,286047003.5,N
1536344935.7,286047002.5,N
1536344955.6,286047001.7,N
1536344975.4,286047001.9,N
1536344995.2,286047002.3,N
1536345015.1,286047002.6,N
1536345016.0,286047002.6,N
1536345035.8,286047003.8,N
1536345055.6,286047003.1,N
1536345075.5,286047004.6,N
1536345095.3,286047003.8,N
1536345115.2,286047005.7,N
1536345135.9,286047005.9,N
1536345155.7,286047004.7,N
1536345175.6,286047005.9,Y
1536345195.4,286047003.9,P
1536345215.2,286047005.2,P
1536345235.1,286047003.2,N
1536345236.0,286047003.2,N
1536345255.8,286047005.8,Y
1536345275.7,286047002.5,P
1536345295.5,286047001.6,N
1536345315.3,286046999.7,N
1536345335.2,286047002.1,N
1536345355.9,286047001.9,N
1536345375.7,286046998.9,N
1536345395.6,286046998.6,N
1536345415.4,286046998.6,N
1536345435.3,286046996.8,N
1536345455.1,286047000.8,N
1536345456.0,286047000.8,N
1536345475.8,286046999.4,N
1536345495.7,286047000.2,N
1536345515.5,286047000.2,N
1536345535.3,286047002.2,N
1536345555.2,286046999.8,N
1536345575.0,286046998.1,N
1536345575.9,286046998.1,N
1536345595.8,286046997.1,N
1536345615.6,286046999.2,N
1536345635.4,286046998.5,N
1536345655.3,286046997.2,N
1536345675.1,286046996.7,N
1536345676.0,286046996.7,N
1536345695.8,286046999.0,N
1536345715.7,286047001.2,N
1536345735.5,286047000.7,N
1536345755.3,286047000.2,N
1536345775.2,286046998.8,N
1536345795.0,286047001.0,N
1536345795.9,286047001.0,N
1536345815.8,286047000.6,N
1536345835.6,286046997.1,N
1536345855.4,286046996.7,N
1536345875.3,286046998.5,N
1536345895.1,286047000.4,N
1536345915.9,286047000.5,N
1536345935.7,286047000.5,N
1536345955.5,286047000.2,N
1536345975.4,286047001.8,N
1536345995.2,286047001.6,N
1536346015.0,286047004.3,N
1536346015.9,286047004.3,N
1536346035.8,286047001.6,N
1536346055.6,286047001.8,N
1536346075.5,286047000.5,N
1536346095.3,286047000.4,N
1536346115.1,286047002.4,N
1536346135.9,286047002.2,N
1536346155.7,286047000.2,N
1536346175.5,286047002.8,N
1536346195.4,286047000.9,N
1536346215.2,286047000.3,N
1536346235.1,286047002.5,N
1536346236.0,286047002.5,N
1536346255.8,286046999.7,N
1536346275.6,286047002.1,N
1536346295.5,286047003.6,N
1536346315.3,286047002.1,N
1536346335.1,286047001.5,N
1536346355.9,286047001.5,N
1536346375.7,286047002.2,N
1536346395.6,286047002.7,N
1536346415.4,286047001.5,N
1536346435.2,286047002.8,N
1536346455.1,286046999.7,N
1536346456.0,286046999.7,N
1536346475.8,286047001.9,N
1536346495.6,286047001.9,N
1536346515.5,286047001.3,N
1536346535.3,286047001.8,N
1536346555.2,286047001.8,N
1536346575.9,286047002.7,N
1536346595.7,286047002.0,N
1536346615.6,286047001.9,N
1536346635.4,286047003.1,Y
1536346655.2,286047001.7,P
1536346675.1,286047004.2,P
1536346676.0,286047004.2,P
1536346695.8,286047004.3,Y
1536346715.7,286046999.0,P
1536346735.5,286046999.1,N
1536346755.3,286047000.7,N
1536346775.2,286046998.2,N
1536346795.0,286046999.4,N
1536346795.9,286046999.4,N
